London-Corbin, KY

5:37 PM EST on December 05, 2019 (GMT -0500)
London-Corbin / McKee

Weather History for KLOZ - May, 2019

Change the Weather History Date:

Saturday, May 4, 2019

  Actual Average Record
Temperature  
Mean Temperature 66 °F 62 °F  
Max Temperature 73 °F 74 °F 87 °F (1955)
Min Temperature 59 °F 50 °F 29 °F (1971)
Degree Days  
Heating Degree Days 0 5  
Month to date heating degree days 0 20  
Since 1 July heating degree days 3980 4121  
Cooling Degree Days 1 1  
Month to date cooling degree days 16 4  
Year to date cooling degree days 28 30  
Growing Degree Days 16 (Base 50)    
Moisture  
Dew Point 63 °F    
Average Humidity 87    
Maximum Humidity 100    
Minimum Humidity 73    
Precipitation  
Precipitation 0.57 in 0.16 in 1.73 in (1988)
Month to date precipitation 2.22 0.62  
Sea Level Pressure  
Sea Level Pressure 29.85 in    
Wind  
Wind Speed 2 mph (South)    
Max Wind Speed 13 mph    
Max Gust Speed 16 mph    
Visibility 8 miles    
Events Rain    
T = Trace of Precipitation, MM = Missing Value Source: NWS Daily Summary

Daily Weather History Graph

Daily Weather History Graph

Search for Another Location

Airport or City:

Astronomy

May. 04, 2019 Rise Set
Actual Time 6:38 AM EDT 8:28 PM EDT
Civil Twilight 6:10 AM EDT 8:56 PM EDT
Nautical Twilight 5:36 AM EDT 9:30 PM EDT
Astronomical Twilight 5:00 AM EDT 10:06 PM EDT
Moon 6:47 AM EDT (5/4) 8:18 PM EDT (5/4)
Length of Visible Light 14h 45m
Length of Day
13h 49m
Waning Crescent, 0% of the Moon is Illuminated
May 4
Waning Crescent
May 4
New
May 11
First Quarter
May 18
Full
May 26
Last Quarter

Hourly Weather History & Observations

Time (EDT) Temp. Dew Point Humidity Pressure Visibility Wind Dir Wind Speed Gust Speed Precip Events Conditions
12:53 AM 61.0 °F 61.0 °F 100% 29.94 in 10.0 mi ESE 3.5 mph - N/A   Clear
1:53 AM 61.0 °F 61.0 °F 100% 29.93 in 8.0 mi Calm Calm - N/A   Clear
2:53 AM 60.1 °F 60.1 °F 100% 29.91 in 5.0 mi Calm Calm - N/A   Mostly Cloudy
3:53 AM 60.1 °F 60.1 °F 100% 29.90 in 9.0 mi SSE 3.5 mph - N/A   Clear
4:53 AM 60.1 °F 60.1 °F 100% 29.91 in 7.0 mi Calm Calm - N/A   Clear
5:53 AM 60.1 °F 60.1 °F 100% 29.91 in 10.0 mi Calm Calm - N/A   Overcast
6:53 AM 60.1 °F 60.1 °F 100% 29.91 in 10.0 mi Calm Calm - N/A   Mostly Cloudy
7:53 AM 62.1 °F 62.1 °F 100% 29.91 in 10.0 mi Calm Calm - N/A   Partly Cloudy
8:53 AM 63.0 °F 63.0 °F 100% 29.91 in 10.0 mi Calm Calm - N/A   Clear
9:53 AM 64.0 °F 63.0 °F 96% 29.91 in 10.0 mi South 4.6 mph - N/A   Partly Cloudy
10:53 AM 69.1 °F 64.0 °F 84% 29.88 in 10.0 mi Variable 3.5 mph - N/A   Clear
11:53 AM 71.1 °F 63.0 °F 75% 29.89 in 10.0 mi Variable 5.8 mph - N/A   Partly Cloudy
12:53 PM 72.0 °F 63.0 °F 73% 29.87 in 10.0 mi South 4.6 mph - N/A   Mostly Cloudy
2:21 PM 69.1 °F 64.9 °F 87% 29.87 in 6.0 mi WNW 8.1 mph - 0.02 in Rain Rain
2:28 PM 69.1 °F 64.9 °F 87% 29.88 in 6.0 mi West 6.9 mph - 0.03 in Rain Light Rain
2:53 PM 68.0 °F 66.0 °F 93% 29.85 in 2.5 mi WSW 4.6 mph - 0.08 in Rain Light Rain
2:58 PM 68.0 °F 66.0 °F 93% 29.87 in 1.8 mi SSW 9.2 mph - 0.02 in Rain Rain
3:12 PM 66.0 °F 64.9 °F 96% 29.85 in 3.0 mi Calm Calm - 0.07 in Rain Light Rain
3:19 PM 66.9 °F 66.0 °F 97% 29.84 in 8.0 mi Calm Calm - 0.07 in Rain Light Rain
3:53 PM 68.0 °F 66.0 °F 93% 29.81 in 10.0 mi ESE 3.5 mph - 0.07 in   Scattered Clouds
4:25 PM 69.1 °F 64.9 °F 87% 29.82 in 10.0 mi Calm Calm - N/A   Overcast
4:34 PM 68.0 °F 64.9 °F 90% 29.82 in 10.0 mi Calm Calm - N/A   Overcast
4:53 PM 69.1 °F 64.0 °F 84% 29.80 in 10.0 mi Variable 3.5 mph - N/A   Overcast
5:53 PM 66.9 °F 64.0 °F 90% 29.79 in 7.0 mi Calm Calm - 0.01 in Rain Light Rain
6:53 PM 66.9 °F 64.9 °F 93% 29.77 in 10.0 mi SE 3.5 mph - 0.00 in   Mostly Cloudy
7:53 PM 66.0 °F 64.0 °F 93% 29.77 in 10.0 mi Calm Calm - N/A   Mostly Cloudy
8:16 PM 66.0 °F 64.0 °F 93% 29.80 in 10.0 mi Calm Calm - 0.00 in   Overcast
8:28 PM 66.0 °F 64.0 °F 93% 29.80 in 10.0 mi Calm Calm - 0.00 in Rain Light Rain
8:53 PM 64.9 °F 64.0 °F 97% 29.77 in 10.0 mi Calm Calm - 0.01 in Rain Light Rain
9:53 PM 64.0 °F 64.0 °F 100% 29.78 in 2.5 mi Calm Calm - 0.07 in Rain Rain
10:00 PM 64.9 °F 64.9 °F 100% 29.80 in 4.0 mi Calm Calm - 0.01 in Rain Light Rain
10:53 PM 64.0 °F 64.0 °F 100% 29.79 in 4.0 mi Calm Calm - 0.13 in Rain Rain
11:45 PM 63.0 °F 63.0 °F 100% 29.80 in 6.0 mi Calm Calm - 0.07 in Rain Light Rain
11:50 PM 64.4 °F 64.4 °F 100% 29.80 in 5.0 mi Calm Calm - 0.08 in Rain Rain
11:53 PM 64.0 °F 64.0 °F 100% 29.77 in 5.0 mi Calm Calm - 0.09 in Rain Light Rain